Time,TemperatureF,DewpointF,PressureIn,WindDirection,WindDirectionDegrees,WindSpeedMPH,WindSpeedGustMPH,Humidity,HourlyPrecipIn,Conditions,Clouds,dailyrainin,SolarRadiationWatts/m^2,SoftwareType,DateUTC
2013-11-08 00:01:00,35.7,28.9,30.11,WNW,292,10.4,10.4,76,0.00,RA,,0.00,0.0,WeatherDisplay:10.37,2013-11-08 05:01:00,
2013-11-08 00:02:00,35.7,28.9,30.11,West,273,11.0,11.0,76,0.00,RA,,0.00,0.0,WeatherDisplay:10.37,2013-11-08 05:02:00,
2013-11-08 00:07:00,35.6,28.8,30.11,WNW,293,9.2,9.2,76,0.00,RA,,0.00,0.0,WeatherDisplay:10.37,2013-11-08 05:07:00,
2013-11-08 00:12:00,35.4,28.9,30.11,West,273,5.8,5.8,77,0.00,OVC,,0.00,0.0,WeatherDisplay:10.37,2013-11-08 05:12:00,
2013-11-08 00:17:00,35.2,28.7,30.11,WNW,291,8.1,8.1,77,0.00,OVC,,0.00,0.0,WeatherDisplay:10.37,2013-11-08 05:17:00,
2013-11-08 00:22:00,35.1,28.6,30.11,WNW,283,5.8,5.8,77,0.00,OVC,,0.00,0.0,WeatherDisplay:10.37,2013-11-08 05:22:00,
2013-11-08 00:27:00,35.0,28.5,30.11,WNW,287,6.9,6.9,77,0.00,OVC,,0.00,0.0,WeatherDisplay:10.37,2013-11-08 05:27:00,
2013-11-08 00:32:00,34.8,28.6,30.12,West,277,8.1,8.1,78,0.00,OVC,,0.00,0.0,WeatherDisplay:10.37,2013-11-08 05:32:00,
2013-11-08 00:37:00,34.6,28.4,30.12,WNW,287,5.8,5.8,78,0.00,OVC,,0.00,0.0,WeatherDisplay:10.37,2013-11-08 05:37:00,
2013-11-08 00:43:00,34.4,28.2,30.11,WSW,238,4.6,4.6,78,0.00,OVC,,0.00,0.0,WeatherDisplay:10.37,2013-11-08 05:43:00,
2013-11-08 00:48:00,34.4,28.2,30.12,West,277,4.6,4.6,78,0.00,OVC,,0.00,0.0,WeatherDisplay:10.37,2013-11-08 05:48:00,
2013-11-08 00:53:00,34.3,28.5,30.12,West,273,4.6,4.6,79,0.00,OVC,,0.00,0.0,WeatherDisplay:10.37,2013-11-08 05:53:00,
2013-11-08 00:58:00,34.2,28.4,30.12,West,267,6.0,6.0,79,0.00,OVC,,0.00,0.0,WeatherDisplay:10.37,2013-11-08 05:58:00,
2013-11-08 01:03:00,34.1,28.3,30.12,WNW,284,3.5,3.5,79,0.00,BKN,,0.00,0.0,WeatherDisplay:10.37,2013-11-08 06:03:00,
2013-11-08 01:08:00,33.9,28.1,30.12,WSW,253,3.5,3.5,79,0.00,BKN,,0.00,0.0,WeatherDisplay:10.37,2013-11-08 06:08:00,
2013-11-08 01:13:00,33.8,28.0,30.12,WSW,246,5.0,5.0,79,0.00,BKN,,0.00,0.0,WeatherDisplay:10.37,2013-11-08 06:13:00,
2013-11-08 01:18:00,33.6,28.1,30.12,WSW,258,4.6,4.6,80,0.00,BKN,,0.00,0.0,WeatherDisplay:10.37,2013-11-08 06:18:00,
2013-11-08 01:23:00,33.5,28.0,30.12,West,277,4.6,4.6,80,0.00,BKN,,0.00,0.0,WeatherDisplay:10.37,2013-11-08 06:23:00,
2013-11-08 01:28:00,33.3,28.1,30.12,West,267,4.6,4.6,81,0.00,BKN,,0.00,0.0,WeatherDisplay:10.37,2013-11-08 06:28:00,
2013-11-08 01:33:00,33.2,28.0,30.13,WNW,282,3.5,3.5,81,0.00,BKN,,0.00,0.0,WeatherDisplay:10.37,2013-11-08 06:33:00,
2013-11-08 01:38:00,33.0,27.8,30.12,West,276,3.5,3.5,81,0.00,BKN,,0.00,0.0,WeatherDisplay:10.37,2013-11-08 06:38:00,
2013-11-08 01:43:00,33.0,27.8,30.13,West,271,6.9,6.9,81,0.00,BKN,,0.00,0.0,WeatherDisplay:10.37,2013-11-08 06:43:00,
2013-11-08 01:48:00,32.9,28.0,30.13,West,275,6.9,6.9,82,0.00,BKN,,0.00,0.0,WeatherDisplay:10.37,2013-11-08 06:48:00,
2013-11-08 01:53:00,32.8,27.9,30.13,West,279,6.0,6.0,82,0.00,BKN,,0.00,0.0,WeatherDisplay:10.37,2013-11-08 06:53:00,
2013-11-08 01:58:00,32.8,27.9,30.13,West,262,5.8,5.8,82,0.00,BKN,,0.00,0.0,WeatherDisplay:10.37,2013-11-08 06:58:00,
2013-11-08 02:03:00,32.7,27.8,30.13,WNW,284,6.0,6.0,82,0.00,SCT,,0.00,0.0,WeatherDisplay:10.37,2013-11-08 07:03:00,
2013-11-08 02:08:00,32.6,27.7,30.13,West,275,4.6,4.6,82,0.00,SCT,,0.00,0.0,WeatherDisplay:10.37,2013-11-08 07:08:00,
2013-11-08 02:13:00,32.6,27.7,30.13,WSW,240,5.8,5.8,82,0.00,SCT,,0.00,0.0,WeatherDisplay:10.37,2013-11-08 07:13:00,
2013-11-08 02:18:00,32.5,27.6,30.14,West,273,3.5,3.5,82,0.00,SCT,,0.00,0.0,WeatherDisplay:10.37,2013-11-08 07:18:00,
2013-11-08 02:23:00,32.5,27.6,30.14,West,263,3.5,3.5,82,0.00,SCT,,0.00,0.0,WeatherDisplay:10.37,2013-11-08 07:23:00,
2013-11-08 02:28:00,32.5,27.6,30.14,WSW,245,4.6,4.6,82,0.00,SCT,,0.00,0.0,WeatherDisplay:10.37,2013-11-08 07:28:00,
2013-11-08 02:33:00,32.5,27.3,30.14,West,268,4.6,4.6,81,0.00,SCT,,0.00,0.0,WeatherDisplay:10.37,2013-11-08 07:33:00,
2013-11-08 02:38:00,32.4,27.2,30.14,West,261,6.9,6.9,81,0.00,SCT,,0.00,0.0,WeatherDisplay:10.37,2013-11-08 07:38:00,
2013-11-08 02:43:00,32.4,27.2,30.14,West,280,9.2,9.2,81,0.00,SCT,,0.00,0.0,WeatherDisplay:10.37,2013-11-08 07:43:00,
2013-11-08 02:48:00,32.4,27.2,30.14,West,261,6.9,6.9,81,0.00,SCT,,0.00,0.0,WeatherDisplay:10.37,2013-11-08 07:48:00,
2013-11-08 02:53:00,32.5,27.3,30.15,WSW,255,4.6,4.6,81,0.00,SCT,,0.00,0.0,WeatherDisplay:10.37,2013-11-08 07:53:00,
2013-11-08 02:58:00,32.4,26.9,30.15,SW,226,5.0,5.0,80,0.00,SCT,,0.00,0.0,WeatherDisplay:10.37,2013-11-08 07:58:00,
2013-11-08 03:03:00,32.3,27.1,30.15,WSW,257,6.9,6.9,81,0.00,SCT,,0.00,0.0,WeatherDisplay:10.37,2013-11-08 08:03:00,
2013-11-08 03:08:00,32.2,27.0,30.15,SW,232,6.9,6.9,81,0.00,SCT,,0.00,0.0,WeatherDisplay:10.37,2013-11-08 08:08:00,
2013-11-08 03:13:00,32.1,26.9,30.15,SSW,211,5.8,5.8,81,0.00,SCT,,0.00,0.0,WeatherDisplay:10.37,2013-11-08 08:13:00,
2013-11-08 03:18:00,32.0,26.8,30.16,WSW,242,5.8,5.8,81,0.00,SCT,,0.00,0.0,WeatherDisplay:10.37,2013-11-08 08:18:00,
2013-11-08 03:23:00,31.8,26.6,30.16,SW,229,5.8,5.8,81,0.00,SCT,,0.00,0.0,WeatherDisplay:10.37,2013-11-08 08:23:00,
2013-11-08 03:28:00,31.7,26.8,30.16,WSW,245,5.0,5.0,82,0.00,SCT,,0.00,0.0,WeatherDisplay:10.37,2013-11-08 08:28:00,
2013-11-08 03:33:00,31.5,26.6,30.16,WSW,248,7.0,7.0,82,0.00,SCT,,0.00,0.0,WeatherDisplay:10.37,2013-11-08 08:33:00,
2013-11-08 03:38:00,31.5,26.6,30.16,West,275,2.3,2.3,82,0.00,SCT,,0.00,0.0,WeatherDisplay:10.37,2013-11-08 08:38:00,
2013-11-08 03:43:00,31.5,26.9,30.16,West,261,4.0,4.0,83,0.00,SCT,,0.00,0.0,WeatherDisplay:10.37,2013-11-08 08:43:00,
2013-11-08 03:48:00,31.5,26.9,30.16,West,261,4.6,4.6,83,0.00,SCT,,0.00,0.0,WeatherDisplay:10.37,2013-11-08 08:48:00,
2013-11-08 03:53:00,31.4,26.8,30.16,West,266,8.0,8.0,83,0.00,SCT,,0.00,0.0,WeatherDisplay:10.37,2013-11-08 08:53:00,
2013-11-08 03:58:00,31.4,26.8,30.16,WSW,243,6.9,6.9,83,0.00,SCT,,0.00,0.0,WeatherDisplay:10.37,2013-11-08 08:58:00,
2013-11-08 04:03:00,31.3,27.0,30.16,West,272,3.5,3.5,84,0.00,BKN,,0.00,0.0,WeatherDisplay:10.37,2013-11-08 09:03:00,
2013-11-08 04:08:00,31.2,26.9,30.16,West,270,6.0,6.0,84,0.00,BKN,,0.00,0.0,WeatherDisplay:10.37,2013-11-08 09:08:00,
2013-11-08 04:13:00,31.1,26.8,30.16,West,275,3.5,3.5,84,0.00,BKN,,0.00,0.0,WeatherDisplay:10.37,2013-11-08 09:13:00,
2013-11-08 04:18:00,31.0,27.0,30.17,WNW,298,5.8,5.8,85,0.00,BKN,,0.00,0.0,WeatherDisplay:10.37,2013-11-08 09:18:00,
2013-11-08 04:23:00,31.0,27.0,30.17,West,275,3.5,3.5,85,0.00,BKN,,0.00,0.0,WeatherDisplay:10.37,2013-11-08 09:23:00,
2013-11-08 04:28:00,30.9,27.2,30.17,West,271,2.3,2.5,86,0.00,BKN,,0.00,0.0,WeatherDisplay:10.37,2013-11-08 09:28:00,
2013-11-08 04:33:00,30.7,27.0,30.17,West,266,4.0,4.0,86,0.00,BKN,,0.00,0.0,WeatherDisplay:10.37,2013-11-08 09:33:00,
2013-11-08 04:38:00,30.8,27.4,30.17,West,272,4.6,4.6,87,0.00,BKN,,0.00,0.0,WeatherDisplay:10.37,2013-11-08 09:38:00,
2013-11-08 04:43:00,30.7,27.3,30.17,WSW,250,3.5,3.5,87,0.00,BKN,,0.00,0.0,WeatherDisplay:10.37,2013-11-08 09:43:00,
2013-11-08 04:48:00,30.6,27.2,30.17,West,278,3.5,3.5,87,0.00,BKN,,0.00,0.0,WeatherDisplay:10.37,2013-11-08 09:48:00,
2013-11-08 04:53:00,30.6,27.2,30.18,WNW,294,3.5,3.5,87,0.00,BKN,,0.00,0.0,WeatherDisplay:10.37,2013-11-08 09:53:00,
2013-11-08 04:58:00,30.7,27.3,30.18,West,274,4.0,4.0,87,0.00,BKN,,0.00,0.0,WeatherDisplay:10.37,2013-11-08 09:58:00,
2013-11-08 05:03:00,30.6,27.5,30.18,WNW,286,4.0,4.0,88,0.00,CLR,,0.00,0.0,WeatherDisplay:10.37,2013-11-08 10:03:00,
2013-11-08 05:08:00,30.6,27.5,30.18,West,260,3.5,3.5,88,0.00,CLR,,0.00,0.0,WeatherDisplay:10.37,2013-11-08 10:08:00,
2013-11-08 05:13:00,30.6,27.5,30.18,West,260,3.5,3.5,88,0.00,CLR,,0.00,0.0,WeatherDisplay:10.37,2013-11-08 10:13:00,
2013-11-08 05:18:00,30.5,27.4,30.18,WSW,249,3.5,3.5,88,0.00,CLR,,0.00,0.0,WeatherDisplay:10.37,2013-11-08 10:18:00,
2013-11-08 05:23:00,30.4,27.3,30.18,West,271,3.0,3.0,88,0.00,CLR,,0.00,0.0,WeatherDisplay:10.37,2013-11-08 10:23:00,
2013-11-08 05:28:00,30.3,27.2,30.18,WSW,253,4.0,4.0,88,0.00,CLR,,0.00,0.0,WeatherDisplay:10.37,2013-11-08 10:28:00,
2013-11-08 05:33:00,30.2,27.3,30.18,WSW,253,3.5,3.5,89,0.00,CLR,,0.00,0.0,WeatherDisplay:10.37,2013-11-08 10:33:00,
2013-11-08 05:38:00,30.2,27.3,30.19,WSW,253,3.5,3.5,89,0.00,CLR,,0.00,0.0,WeatherDisplay:10.37,2013-11-08 10:38:00,
2013-11-08 05:43:00,30.1,27.3,30.19,WSW,253,2.3,2.3,89,0.00,CLR,,0.00,0.0,WeatherDisplay:10.37,2013-11-08 10:43:00,
2013-11-08 05:48:00,30.0,27.2,30.19,WSW,253,2.3,2.3,89,0.00,CLR,,0.00,0.0,WeatherDisplay:10.37,2013-11-08 10:48:00,
2013-11-08 05:53:00,29.9,27.1,30.19,WSW,252,3.5,3.5,89,0.00,CLR,,0.00,0.0,WeatherDisplay:10.37,2013-11-08 10:53:00,
2013-11-08 05:58:00,29.9,27.1,30.19,WSW,241,3.5,3.5,89,0.00,CLR,,0.00,0.0,WeatherDisplay:10.37,2013-11-08 10:58:00,
2013-11-08 06:03:00,30.0,27.2,30.20,WSW,242,4.6,4.6,89,0.00,CLR,,0.00,0.0,WeatherDisplay:10.37,2013-11-08 11:03:00,
2013-11-08 06:08:00,30.1,27.5,30.20,WSW,246,5.8,5.8,90,0.00,CLR,,0.00,0.0,WeatherDisplay:10.37,2013-11-08 11:08:00,
2013-11-08 06:13:00,30.1,27.5,30.20,WSW,238,4.6,4.6,90,0.00,CLR,,0.00,0.0,WeatherDisplay:10.37,2013-11-08 11:13:00,
2013-11-08 06:18:00,30.1,27.5,30.20,West,276,3.0,3.0,90,0.00,CLR,,0.00,0.0,WeatherDisplay:10.37,2013-11-08 11:18:00,
2013-11-08 06:23:00,30.1,27.5,30.20,West,276,5.0,5.0,90,0.00,CLR,,0.00,0.0,WeatherDisplay:10.37,2013-11-08 11:23:00,
2013-11-08 06:28:00,30.1,27.5,30.20,West,263,4.6,4.6,90,0.00,CLR,,0.00,0.0,WeatherDisplay:10.37,2013-11-08 11:28:00,
2013-11-08 06:33:00,30.0,27.4,30.20,WSW,247,3.5,3.5,90,0.00,CLR,,0.00,0.0,WeatherDisplay:10.37,2013-11-08 11:33:00,
2013-11-08 06:38:00,30.0,27.4,30.21,WSW,252,3.5,3.5,90,0.00,CLR,,0.00,0.0,WeatherDisplay:10.37,2013-11-08 11:38:00,
2013-11-08 06:43:00,29.9,27.3,30.21,WSW,252,4.0,4.0,90,0.00,CLR,,0.00,0.0,WeatherDisplay:10.37,2013-11-08 11:43:00,
2013-11-08 06:48:00,30.0,27.4,30.21,SW,234,2.0,2.0,90,0.00,CLR,,0.00,0.0,WeatherDisplay:10.37,2013-11-08 11:48:00,
2013-11-08 06:53:00,29.9,27.3,30.21,WSW,254,3.5,3.5,90,0.00,CLR,,0.00,0.0,WeatherDisplay:10.37,2013-11-08 11:53:00,
2013-11-08 06:58:00,30.1,27.5,30.21,WNW,290,2.3,2.3,90,0.00,CLR,,0.00,0.0,WeatherDisplay:10.37,2013-11-08 11:58:00,
2013-11-08 07:03:00,30.3,27.7,30.22,WSW,255,3.5,3.5,90,0.00,BKN,,0.00,0.0,WeatherDisplay:10.37,2013-11-08 12:03:00,
2013-11-08 07:08:00,30.5,27.9,30.22,WSW,247,4.6,4.6,90,0.00,BKN,,0.00,0.0,WeatherDisplay:10.37,2013-11-08 12:08:00,
2013-11-08 07:13:00,30.7,28.1,30.22,WSW,253,4.0,4.0,90,0.00,BKN,,0.00,0.0,WeatherDisplay:10.37,2013-11-08 12:13:00,
2013-11-08 07:18:00,30.9,28.0,30.22,WSW,252,3.5,3.5,89,0.00,BKN,,0.00,0.0,WeatherDisplay:10.37,2013-11-08 12:18:00,
2013-11-08 07:23:00,31.1,28.2,30.23,WSW,247,3.5,3.5,89,0.00,BKN,,0.00,0.0,WeatherDisplay:10.37,2013-11-08 12:23:00,
2013-11-08 07:28:00,31.3,28.4,30.23,WSW,244,2.3,2.3,89,0.00,BKN,,0.00,7.0,WeatherDisplay:10.37,2013-11-08 12:28:00,
2013-11-08 07:33:00,31.5,28.6,30.23,SW,234,3.5,3.5,89,0.00,BKN,,0.00,11.0,WeatherDisplay:10.37,2013-11-08 12:33:00,
2013-11-08 07:38:00,31.6,28.5,30.23,SW,222,3.5,3.5,88,0.00,BKN,,0.00,14.0,WeatherDisplay:10.37,2013-11-08 12:38:00,
2013-11-08 07:43:00,31.7,28.6,30.23,SW,234,1.2,1.2,88,0.00,BKN,,0.00,18.0,WeatherDisplay:10.37,2013-11-08 12:43:00,
2013-11-08 07:48:00,31.9,28.8,30.23,WSW,250,4.0,4.0,88,0.00,BKN,,0.00,26.0,WeatherDisplay:10.37,2013-11-08 12:48:00,
2013-11-08 07:53:00,32.0,28.8,30.24,WSW,240,3.5,3.5,88,0.00,BKN,,0.00,32.0,WeatherDisplay:10.37,2013-11-08 12:53:00,
2013-11-08 07:58:00,32.1,28.9,30.24,WSW,257,3.5,3.5,88,0.00,BKN,,0.00,35.0,WeatherDisplay:10.37,2013-11-08 12:58:00,
2013-11-08 08:03:00,32.2,28.8,30.24,WSW,258,3.5,3.5,87,0.00,BKN,,0.00,30.0,WeatherDisplay:10.37,2013-11-08 13:03:00,
2013-11-08 08:08:00,32.2,28.8,30.24,WSW,248,3.5,3.5,87,0.00,BKN,,0.00,25.0,WeatherDisplay:10.37,2013-11-08 13:08:00,
2013-11-08 08:13:00,32.3,28.9,30.25,WSW,247,3.5,3.5,87,0.00,BKN,,0.00,62.0,WeatherDisplay:10.37,2013-11-08 13:13:00,
2013-11-08 08:18:00,32.5,29.1,30.25,WSW,242,3.5,3.5,87,0.00,BKN,,0.00,83.0,WeatherDisplay:10.37,2013-11-08 13:18:00,
2013-11-08 08:23:00,32.8,29.1,30.25,West,259,6.9,6.9,86,0.00,BKN,,0.00,62.0,WeatherDisplay:10.37,2013-11-08 13:23:00,
2013-11-08 08:28:00,33.0,29.3,30.25,West,264,4.6,4.6,86,0.00,BKN,,0.00,62.0,WeatherDisplay:10.37,2013-11-08 13:28:00,
2013-11-08 08:33:00,33.2,29.2,30.26,West,265,3.5,3.5,85,0.00,BKN,,0.00,83.0,WeatherDisplay:10.37,2013-11-08 13:33:00,
2013-11-08 08:38:00,33.3,29.3,30.26,WSW,252,3.5,3.5,85,0.00,BKN,,0.00,127.0,WeatherDisplay:10.37,2013-11-08 13:38:00,
2013-11-08 08:43:00,33.5,29.5,30.26,WSW,247,5.8,5.8,85,0.00,BKN,,0.00,95.0,WeatherDisplay:10.37,2013-11-08 13:43:00,
2013-11-08 08:48:00,33.7,29.7,30.26,West,266,4.6,4.6,85,0.00,BKN,,0.00,95.0,WeatherDisplay:10.37,2013-11-08 13:48:00,
2013-11-08 08:53:00,34.0,29.7,30.27,SW,234,4.0,4.0,84,0.00,BKN,,0.00,113.0,WeatherDisplay:10.37,2013-11-08 13:53:00,
2013-11-08 08:58:00,34.2,29.6,30.27,West,270,3.5,3.5,83,0.00,BKN,,0.00,123.0,WeatherDisplay:10.37,2013-11-08 13:58:00,
2013-11-08 09:03:00,34.4,29.8,30.27,SW,234,4.0,4.0,83,0.00,SCT,,0.00,118.0,WeatherDisplay:10.37,2013-11-08 14:03:00,
2013-11-08 09:08:00,34.6,30.0,30.27,WSW,244,5.8,5.8,83,0.00,SCT,,0.00,118.0,WeatherDisplay:10.37,2013-11-08 14:08:00,
2013-11-08 09:13:00,35.1,30.2,30.27,WNW,300,3.5,3.5,82,0.00,SCT,,0.00,176.0,WeatherDisplay:10.37,2013-11-08 14:13:00,
2013-11-08 09:18:00,35.6,30.3,30.27,West,269,8.1,8.1,81,0.00,SCT,,0.00,206.0,WeatherDisplay:10.37,2013-11-08 14:18:00,
2013-11-08 09:23:00,36.2,30.6,30.27,West,265,6.9,6.9,80,0.00,SCT,,0.00,227.0,WeatherDisplay:10.37,2013-11-08 14:23:00,
2013-11-08 09:28:00,36.4,30.5,30.27,WSW,241,6.9,6.9,79,0.00,SCT,,0.00,190.0,WeatherDisplay:10.37,2013-11-08 14:28:00,
2013-11-08 09:33:00,36.7,30.5,30.27,NW,323,5.8,5.8,78,0.00,SCT,,0.00,225.0,WeatherDisplay:10.37,2013-11-08 14:33:00,
2013-11-08 09:38:00,37.1,30.9,30.27,WSW,250,9.2,9.2,78,0.01,RA,,0.01,294.0,WeatherDisplay:10.37,2013-11-08 14:38:00,
2013-11-08 09:43:00,37.7,31.5,30.27,West,279,9.2,9.2,78,0.01,RA,,0.01,306.0,WeatherDisplay:10.37,2013-11-08 14:43:00,
2013-11-08 09:48:00,38.0,30.8,30.27,West,277,10.0,10.0,75,0.01,SCT,,0.01,320.0,WeatherDisplay:10.37,2013-11-08 14:48:00,
2013-11-08 09:53:00,37.9,31.0,30.28,WNW,302,11.0,11.0,76,0.01,SCT,,0.01,330.0,WeatherDisplay:10.37,2013-11-08 14:53:00,
2013-11-08 09:58:00,38.3,31.7,30.28,NW,312,9.0,9.0,77,0.01,SCT,,0.01,343.0,WeatherDisplay:10.37,2013-11-08 14:58:00,
2013-11-08 10:03:00,38.8,31.9,30.28,WNW,302,4.0,4.0,76,0.01,CLR,,0.01,352.0,WeatherDisplay:10.37,2013-11-08 15:03:00,
2013-11-08 10:08:00,39.2,31.9,30.28,WNW,292,5.8,5.8,75,0.01,CLR,,0.01,362.0,WeatherDisplay:10.37,2013-11-08 15:08:00,
2013-11-08 10:13:00,39.6,32.7,30.28,West,275,5.8,5.8,76,0.01,CLR,,0.01,373.0,WeatherDisplay:10.37,2013-11-08 15:13:00,
2013-11-08 10:18:00,39.9,31.9,30.28,West,269,8.1,8.1,73,0.01,CLR,,0.01,381.0,WeatherDisplay:10.37,2013-11-08 15:18:00,
2013-11-08 10:23:00,40.0,31.7,30.28,NW,313,8.1,8.1,72,0.01,CLR,,0.01,390.0,WeatherDisplay:10.37,2013-11-08 15:23:00,
2013-11-08 10:28:00,40.1,31.8,30.28,NNW,329,2.3,2.3,72,0.01,CLR,,0.01,403.0,WeatherDisplay:10.37,2013-11-08 15:28:00,
2013-11-08 10:33:00,40.2,31.5,30.28,WNW,298,11.5,11.5,71,0.01,CLR,,0.01,417.0,WeatherDisplay:10.37,2013-11-08 15:33:00,
2013-11-08 10:38:00,40.2,31.5,30.28,NW,313,9.2,9.2,71,0.00,CLR,,0.01,427.0,WeatherDisplay:10.37,2013-11-08 15:38:00,
2013-11-08 10:43:00,40.6,32.6,30.28,WNW,286,8.0,8.0,73,0.00,CLR,,0.01,438.0,WeatherDisplay:10.37,2013-11-08 15:43:00,
2013-11-08 10:48:00,41.3,32.2,30.28,NNW,335,11.5,11.5,70,0.00,CLR,,0.01,482.0,WeatherDisplay:10.37,2013-11-08 15:48:00,
2013-11-08 10:54:00,41.2,31.4,30.28,WNW,282,9.2,9.2,68,0.00,CLR,,0.01,476.0,WeatherDisplay:10.37,2013-11-08 15:54:00,
2013-11-08 10:59:00,41.2,31.4,30.28,NW,321,10.4,10.4,68,0.00,CLR,,0.01,483.0,WeatherDisplay:10.37,2013-11-08 15:59:00,
2013-11-08 11:04:00,41.0,31.2,30.28,WNW,288,10.4,10.4,68,0.00,CLR,,0.01,113.0,WeatherDisplay:10.37,2013-11-08 16:04:00,
2013-11-08 11:09:00,41.0,31.2,30.28,NW,315,12.7,12.7,68,0.00,CLR,,0.01,512.0,WeatherDisplay:10.37,2013-11-08 16:09:00,
2013-11-08 11:14:00,40.9,30.0,30.28,NW,304,12.0,12.0,65,0.00,CLR,,0.01,116.0,WeatherDisplay:10.37,2013-11-08 16:14:00,
2013-11-08 11:19:00,40.3,30.2,30.28,NNW,336,12.7,12.7,67,0.00,CLR,,0.01,107.0,WeatherDisplay:10.37,2013-11-08 16:19:00,
2013-11-08 11:24:00,40.3,30.6,30.28,NW,306,6.9,6.9,68,0.00,CLR,,0.01,538.0,WeatherDisplay:10.37,2013-11-08 16:24:00,
2013-11-08 11:29:00,40.3,29.8,30.28,NW,323,6.9,6.9,66,0.00,CLR,,0.01,93.0,WeatherDisplay:10.37,2013-11-08 16:29:00,
2013-11-08 11:34:00,40.2,29.7,30.28,WNW,293,11.5,11.5,66,0.00,CLR,,0.01,141.0,WeatherDisplay:10.37,2013-11-08 16:34:00,
2013-11-08 11:39:00,40.6,30.5,30.28,NNW,348,8.1,8.1,67,0.00,CLR,,0.01,540.0,WeatherDisplay:10.37,2013-11-08 16:39:00,
2013-11-08 11:44:00,40.7,30.6,30.27,West,275,9.2,9.2,67,0.00,CLR,,0.01,561.0,WeatherDisplay:10.37,2013-11-08 16:44:00,
2013-11-08 11:49:00,41.4,30.5,30.28,WNW,288,11.5,11.5,65,0.00,CLR,,0.01,83.0,WeatherDisplay:10.37,2013-11-08 16:49:00,
2013-11-08 11:54:00,40.9,29.7,30.27,WNW,293,8.1,8.1,64,0.00,CLR,,0.01,93.0,WeatherDisplay:10.37,2013-11-08 16:54:00,
2013-11-08 11:59:00,40.5,29.7,30.27,WNW,297,6.0,6.0,65,0.00,CLR,,0.01,116.0,WeatherDisplay:10.37,2013-11-08 16:59:00,
2013-11-08 12:04:00,40.3,29.5,30.27,West,265,9.2,9.2,65,0.00,BKN,,0.01,107.0,WeatherDisplay:10.37,2013-11-08 17:04:00,
2013-11-08 12:09:00,40.2,29.4,30.27,WSW,256,6.0,6.0,65,0.00,BKN,,0.01,116.0,WeatherDisplay:10.37,2013-11-08 17:09:00,
2013-11-08 12:14:00,40.4,30.3,30.26,NW,315,4.6,4.6,67,0.00,BKN,,0.01,633.0,WeatherDisplay:10.37,2013-11-08 17:14:00,
2013-11-08 12:19:00,40.8,28.8,30.26,North,350,9.2,9.2,62,0.00,BKN,,0.01,142.0,WeatherDisplay:10.37,2013-11-08 17:19:00,
2013-11-08 12:24:00,40.9,29.3,30.26,West,276,6.0,6.0,63,0.00,BKN,,0.01,137.0,WeatherDisplay:10.37,2013-11-08 17:24:00,
2013-11-08 12:29:00,41.0,29.7,30.27,West,269,4.0,4.0,64,0.00,BKN,,0.01,141.0,WeatherDisplay:10.37,2013-11-08 17:29:00,
2013-11-08 12:34:00,41.1,29.8,30.27,West,276,8.1,8.1,64,0.00,BKN,,0.01,132.0,WeatherDisplay:10.37,2013-11-08 17:34:00,
2013-11-08 12:39:00,41.0,29.4,30.27,West,273,8.1,8.1,63,0.00,BKN,,0.01,128.0,WeatherDisplay:10.37,2013-11-08 17:39:00,
2013-11-08 12:44:00,41.0,29.4,30.27,West,265,8.1,8.1,63,0.00,BKN,,0.01,151.0,WeatherDisplay:10.37,2013-11-08 17:44:00,
2013-11-08 12:49:00,41.2,29.2,30.26,West,277,10.0,10.0,62,0.00,BKN,,0.01,163.0,WeatherDisplay:10.37,2013-11-08 17:49:00,
2013-11-08 12:54:00,41.2,28.8,30.26,West,272,9.2,9.2,61,0.00,BKN,,0.01,171.0,WeatherDisplay:10.37,2013-11-08 17:54:00,
2013-11-08 12:59:00,41.3,29.6,30.26,WNW,302,11.5,11.5,63,0.00,BKN,,0.01,178.0,WeatherDisplay:10.37,2013-11-08 17:59:00,
2013-11-08 13:04:00,41.5,29.8,30.26,West,261,6.0,6.0,63,0.00,OVC,,0.01,186.0,WeatherDisplay:10.37,2013-11-08 18:04:00,
2013-11-08 13:09:00,41.5,28.2,30.26,WNW,283,11.5,11.5,59,0.00,OVC,,0.01,186.0,WeatherDisplay:10.37,2013-11-08 18:09:00,
2013-11-08 13:14:00,41.6,28.7,30.26,WSW,257,5.8,5.8,60,0.00,OVC,,0.01,163.0,WeatherDisplay:10.37,2013-11-08 18:14:00,
2013-11-08 13:19:00,41.7,28.0,30.25,WNW,291,7.0,7.0,58,0.00,OVC,,0.01,295.0,WeatherDisplay:10.37,2013-11-08 18:19:00,
2013-11-08 13:24:00,42.2,28.5,30.25,West,277,8.1,8.1,58,0.00,OVC,,0.01,735.0,WeatherDisplay:10.37,2013-11-08 18:24:00,
2013-11-08 13:29:00,43.0,28.8,30.25,WNW,283,11.5,11.5,57,0.00,OVC,,0.01,299.0,WeatherDisplay:10.37,2013-11-08 18:29:00,
2013-11-08 13:34:00,43.2,28.1,30.25,SW,221,5.0,5.0,55,0.00,OVC,,0.01,232.0,WeatherDisplay:10.37,2013-11-08 18:34:00,
2013-11-08 13:39:00,43.0,27.9,30.25,NW,304,10.4,10.4,55,0.00,OVC,,0.01,211.0,WeatherDisplay:10.37,2013-11-08 18:39:00,
2013-11-08 13:44:00,43.4,28.3,30.25,WSW,241,11.5,11.5,55,0.00,OVC,,0.01,316.0,WeatherDisplay:10.37,2013-11-08 18:44:00,
2013-11-08 13:49:00,43.6,28.0,30.25,SSW,213,9.2,9.2,54,0.00,OVC,,0.01,513.0,WeatherDisplay:10.37,2013-11-08 18:49:00,
2013-11-08 13:54:00,43.6,27.1,30.25,WSW,244,10.4,10.4,52,0.00,OVC,,0.01,230.0,WeatherDisplay:10.37,2013-11-08 18:54:00,
2013-11-08 13:59:00,43.0,26.6,30.25,WSW,257,10.4,10.4,52,0.00,OVC,,0.01,114.0,WeatherDisplay:10.37,2013-11-08 18:59:00,
2013-11-08 14:04:00,42.7,27.6,30.25,West,267,8.1,8.1,55,0.00,BKN,,0.01,134.0,WeatherDisplay:10.37,2013-11-08 19:04:00,
2013-11-08 14:09:00,42.9,26.9,30.25,WSW,246,8.1,8.1,53,0.00,BKN,,0.01,105.0,WeatherDisplay:10.37,2013-11-08 19:09:00,
2013-11-08 14:14:00,42.4,26.5,30.24,West,268,8.0,8.0,53,0.00,BKN,,0.01,113.0,WeatherDisplay:10.37,2013-11-08 19:14:00,
2013-11-08 14:19:00,42.2,26.3,30.24,WNW,300,6.9,6.9,53,0.00,BKN,,0.01,111.0,WeatherDisplay:10.37,2013-11-08 19:19:00,
2013-11-08 14:24:00,42.1,27.1,30.24,WNW,301,4.6,4.6,55,0.00,BKN,,0.01,278.0,WeatherDisplay:10.37,2013-11-08 19:24:00,
2013-11-08 14:29:00,42.8,27.7,30.24,NW,309,3.5,3.5,55,0.00,BKN,,0.01,541.0,WeatherDisplay:10.37,2013-11-08 19:29:00,
2013-11-08 14:34:00,43.7,27.7,30.24,West,278,5.0,5.0,53,0.00,BKN,,0.01,468.0,WeatherDisplay:10.37,2013-11-08 19:34:00,
2013-11-08 14:39:00,44.2,27.7,30.23,West,266,9.0,9.0,52,0.00,BKN,,0.01,383.0,WeatherDisplay:10.37,2013-11-08 19:39:00,
2013-11-08 14:44:00,44.3,26.3,30.23,WSW,244,12.7,12.7,49,0.00,BKN,,0.01,364.0,WeatherDisplay:10.37,2013-11-08 19:44:00,
2013-11-08 14:49:00,44.3,26.8,30.23,SW,224,8.0,8.0,50,0.00,BKN,,0.01,334.0,WeatherDisplay:10.37,2013-11-08 19:49:00,
2013-11-08 14:54:00,44.3,26.3,30.23,WSW,238,11.5,11.5,49,0.00,BKN,,0.01,292.0,WeatherDisplay:10.37,2013-11-08 19:54:00,
2013-11-08 14:59:00,44.1,26.6,30.23,SW,215,10.4,10.4,50,0.00,BKN,,0.01,269.0,WeatherDisplay:10.37,2013-11-08 19:59:00,
2013-11-08 15:04:00,44.0,26.0,30.23,WSW,245,6.9,6.9,49,0.00,BKN,,0.01,299.0,WeatherDisplay:10.37,2013-11-08 20:04:00,
2013-11-08 15:09:00,43.7,27.2,30.23,WSW,252,3.5,3.5,52,0.00,BKN,,0.01,327.0,WeatherDisplay:10.37,2013-11-08 20:09:00,
2013-11-08 15:14:00,44.1,27.1,30.23,WNW,282,6.9,6.9,51,0.00,BKN,,0.01,323.0,WeatherDisplay:10.37,2013-11-08 20:14:00,
2013-11-08 15:19:00,43.8,27.3,30.23,WSW,252,5.8,5.8,52,0.00,BKN,,0.01,123.0,WeatherDisplay:10.37,2013-11-08 20:19:00,
2013-11-08 15:24:00,43.7,26.7,30.23,WNW,296,6.9,6.9,51,0.00,BKN,,0.01,316.0,WeatherDisplay:10.37,2013-11-08 20:24:00,
2013-11-08 15:29:00,44.0,27.0,30.23,WNW,283,6.9,6.9,51,0.00,BKN,,0.01,318.0,WeatherDisplay:10.37,2013-11-08 20:29:00,
2013-11-08 15:34:00,44.3,27.8,30.23,WSW,244,4.6,4.6,52,0.00,BKN,,0.01,216.0,WeatherDisplay:10.37,2013-11-08 20:34:00,
2013-11-08 15:39:00,44.7,28.1,30.23,SW,236,8.0,8.0,52,0.00,BKN,,0.01,297.0,WeatherDisplay:10.37,2013-11-08 20:39:00,
2013-11-08 15:44:00,44.5,28.0,30.23,SSW,192,9.2,9.2,52,0.00,BKN,,0.01,274.0,WeatherDisplay:10.37,2013-11-08 20:44:00,
2013-11-08 15:49:00,44.6,27.1,30.23,SW,231,12.7,12.7,50,0.00,BKN,,0.01,269.0,WeatherDisplay:10.37,2013-11-08 20:49:00,
2013-11-08 15:54:00,44.2,26.7,30.23,SSW,211,9.2,9.2,50,0.00,BKN,,0.01,243.0,WeatherDisplay:10.37,2013-11-08 20:54:00,
2013-11-08 15:59:00,44.3,27.8,30.23,SW,215,6.9,6.9,52,0.00,BKN,,0.01,248.0,WeatherDisplay:10.37,2013-11-08 20:59:00,
2013-11-08 16:04:00,44.5,27.0,30.23,West,269,6.9,6.9,50,0.00,FEW,,0.01,236.0,WeatherDisplay:10.37,2013-11-08 21:04:00,
2013-11-08 16:09:00,44.2,26.7,30.23,SW,225,11.5,11.5,50,0.00,FEW,,0.01,195.0,WeatherDisplay:10.37,2013-11-08 21:09:00,
2013-11-08 16:14:00,43.6,26.6,30.23,WSW,237,11.5,11.5,51,0.00,FEW,,0.01,72.0,WeatherDisplay:10.37,2013-11-08 21:14:00,
2013-11-08 16:19:00,43.1,26.2,30.24,West,260,9.2,9.2,51,0.00,FEW,,0.01,58.0,WeatherDisplay:10.37,2013-11-08 21:19:00,
2013-11-08 16:24:00,42.9,26.5,30.24,WSW,255,10.4,10.4,52,0.00,FEW,,0.01,63.0,WeatherDisplay:10.37,2013-11-08 21:24:00,
2013-11-08 16:29:00,42.6,26.6,30.24,SW,217,8.1,8.1,53,0.00,FEW,,0.01,60.0,WeatherDisplay:10.37,2013-11-08 21:29:00,
2013-11-08 16:34:00,42.5,27.0,30.24,SW,225,6.9,6.9,54,0.00,FEW,,0.01,53.0,WeatherDisplay:10.37,2013-11-08 21:34:00,
2013-11-08 16:39:00,42.4,26.9,30.23,WSW,244,5.0,5.0,54,0.00,FEW,,0.01,44.0,WeatherDisplay:10.37,2013-11-08 21:39:00,
2013-11-08 16:44:00,42.3,26.8,30.23,WSW,258,11.5,11.5,54,0.00,FEW,,0.01,35.0,WeatherDisplay:10.37,2013-11-08 21:44:00,
2013-11-08 16:49:00,42.1,27.5,30.23,SSW,205,8.1,8.1,56,0.00,FEW,,0.01,32.0,WeatherDisplay:10.37,2013-11-08 21:49:00,
2013-11-08 16:54:00,41.9,27.8,30.23,SW,232,6.0,6.0,57,0.00,FEW,,0.01,26.0,WeatherDisplay:10.37,2013-11-08 21:54:00,
2013-11-08 16:59:00,41.6,27.5,30.24,West,259,9.2,9.2,57,0.00,FEW,,0.01,19.0,WeatherDisplay:10.37,2013-11-08 21:59:00,
2013-11-08 17:04:00,41.5,27.4,30.23,WSW,247,9.2,9.2,57,0.00,CLR,,0.01,12.0,WeatherDisplay:10.37,2013-11-08 22:04:00,
2013-11-08 17:09:00,41.2,27.1,30.23,WSW,244,4.6,4.6,57,0.00,CLR,,0.01,7.0,WeatherDisplay:10.37,2013-11-08 22:09:00,
2013-11-08 17:14:00,41.0,27.3,30.23,WSW,238,3.5,3.5,58,0.00,CLR,,0.01,0.0,WeatherDisplay:10.37,2013-11-08 22:14:00,
2013-11-08 17:19:00,40.6,27.4,30.23,SW,236,3.5,3.5,59,0.00,CLR,,0.01,0.0,WeatherDisplay:10.37,2013-11-08 22:19:00,
2013-11-08 17:24:00,40.3,27.5,30.23,SW,214,3.5,3.5,60,0.00,CLR,,0.01,0.0,WeatherDisplay:10.37,2013-11-08 22:24:00,
2013-11-08 17:29:00,40.0,27.6,30.23,SW,223,6.9,6.9,61,0.00,CLR,,0.01,0.0,WeatherDisplay:10.37,2013-11-08 22:29:00,
2013-11-08 17:34:00,39.8,27.8,30.23,SW,224,4.6,4.6,62,0.00,CLR,,0.01,0.0,WeatherDisplay:10.37,2013-11-08 22:34:00,
2013-11-08 17:39:00,39.5,27.5,30.23,SW,219,3.5,3.5,62,0.00,CLR,,0.01,0.0,WeatherDisplay:10.37,2013-11-08 22:39:00,
2013-11-08 17:44:00,39.3,27.7,30.23,SW,225,4.0,4.0,63,0.00,CLR,,0.01,0.0,WeatherDisplay:10.37,2013-11-08 22:44:00,
2013-11-08 17:49:00,39.2,27.7,30.23,SW,228,3.5,3.5,63,0.00,CLR,,0.01,0.0,WeatherDisplay:10.37,2013-11-08 22:49:00,
2013-11-08 17:54:00,39.0,27.5,30.23,WSW,242,3.5,3.5,63,0.00,CLR,,0.01,0.0,WeatherDisplay:10.37,2013-11-08 22:54:00,
2013-11-08 17:59:00,38.8,27.7,30.23,WSW,240,2.3,2.3,64,0.00,CLR,,0.01,0.0,WeatherDisplay:10.37,2013-11-08 22:59:00,
2013-11-08 18:04:00,38.6,27.5,30.23,WSW,240,2.0,3.0,64,0.00,CLR,,0.01,0.0,WeatherDisplay:10.37,2013-11-08 23:04:00,
2013-11-08 18:09:00,38.4,27.7,30.23,WSW,238,1.0,4.0,65,0.00,CLR,,0.01,0.0,WeatherDisplay:10.37,2013-11-08 23:09:00,
2013-11-08 18:14:00,38.2,27.4,30.23,SW,236,1.0,3.0,65,0.00,CLR,,0.01,0.0,WeatherDisplay:10.37,2013-11-08 23:14:00,
2013-11-08 18:19:00,37.9,27.1,30.23,SW,236,1.0,2.0,65,0.00,CLR,,0.01,0.0,WeatherDisplay:10.37,2013-11-08 23:19:00,
2013-11-08 18:24:00,37.6,27.3,30.23,SW,236,1.0,3.0,66,0.00,CLR,,0.01,0.0,WeatherDisplay:10.37,2013-11-08 23:24:00,
2013-11-08 18:29:00,37.4,27.4,30.23,SW,236,0.0,2.0,67,0.00,CLR,,0.01,0.0,WeatherDisplay:10.37,2013-11-08 23:29:00,
2013-11-08 18:34:00,37.1,27.1,30.23,SW,236,0.0,0.0,67,0.00,CLR,,0.01,0.0,WeatherDisplay:10.37,2013-11-08 23:34:00,
2013-11-08 18:39:00,36.5,26.9,30.23,SW,236,2.3,2.3,68,0.00,CLR,,0.01,0.0,WeatherDisplay:10.37,2013-11-08 23:39:00,
2013-11-08 18:44:00,36.0,27.2,30.23,SW,236,1.2,1.2,70,0.00,CLR,,0.01,0.0,WeatherDisplay:10.37,2013-11-08 23:44:00,
2013-11-08 18:49:00,35.5,27.4,30.24,SW,236,2.3,2.3,72,0.00,CLR,,0.01,0.0,WeatherDisplay:10.37,2013-11-08 23:49:00,
2013-11-08 18:54:00,35.1,27.3,30.24,SW,236,2.3,2.3,73,0.00,CLR,,0.01,0.0,WeatherDisplay:10.37,2013-11-08 23:54:00,
2013-11-08 18:59:00,34.8,27.4,30.23,SW,236,1.0,2.0,74,0.00,CLR,,0.01,0.0,WeatherDisplay:10.37,2013-11-08 23:59:00,
2013-11-08 19:04:00,34.6,27.5,30.23,SW,227,1.0,3.0,75,0.00,CLR,,0.01,0.0,WeatherDisplay:10.37,2013-11-09 00:04:00,
2013-11-08 19:09:00,34.4,27.3,30.23,SSW,210,1.0,3.0,75,0.00,CLR,,0.01,0.0,WeatherDisplay:10.37,2013-11-09 00:09:00,
2013-11-08 19:14:00,34.3,27.2,30.23,SSW,193,0.0,3.0,75,0.00,CLR,,0.01,0.0,WeatherDisplay:10.37,2013-11-09 00:14:00,
2013-11-08 19:19:00,34.2,27.4,30.23,South,188,1.0,3.0,76,0.00,CLR,,0.01,0.0,WeatherDisplay:10.37,2013-11-09 00:19:00,
2013-11-08 19:24:00,34.2,27.4,30.23,South,188,2.3,2.3,76,0.00,CLR,,0.01,0.0,WeatherDisplay:10.37,2013-11-09 00:24:00,
2013-11-08 19:29:00,34.1,27.3,30.22,South,188,2.3,2.3,76,0.00,CLR,,0.01,0.0,WeatherDisplay:10.37,2013-11-09 00:29:00,
2013-11-08 19:34:00,34.1,27.3,30.22,South,180,2.3,2.3,76,0.00,CLR,,0.01,0.0,WeatherDisplay:10.37,2013-11-09 00:34:00,
2013-11-08 19:39:00,34.1,27.3,30.22,South,180,3.5,3.5,76,0.00,CLR,,0.01,0.0,WeatherDisplay:10.37,2013-11-09 00:39:00,
2013-11-08 19:44:00,34.1,27.3,30.23,South,180,3.5,3.5,76,0.00,CLR,,0.01,0.0,WeatherDisplay:10.37,2013-11-09 00:44:00,
2013-11-08 19:49:00,33.9,27.1,30.22,South,180,2.3,2.3,76,0.00,CLR,,0.01,0.0,WeatherDisplay:10.37,2013-11-09 00:49:00,
2013-11-08 19:54:00,33.8,27.0,30.22,South,180,2.3,2.3,76,0.00,CLR,,0.01,0.0,WeatherDisplay:10.37,2013-11-09 00:54:00,
2013-11-08 19:59:00,33.6,26.8,30.22,South,180,2.3,2.3,76,0.00,CLR,,0.01,0.0,WeatherDisplay:10.37,2013-11-09 00:59:00,
2013-11-08 20:04:00,33.4,27.0,30.22,South,180,2.3,2.3,77,0.00,CLR,,0.01,0.0,WeatherDisplay:10.37,2013-11-09 01:04:00,
2013-11-08 20:09:00,33.2,26.8,30.22,South,180,2.3,2.3,77,0.00,CLR,,0.01,0.0,WeatherDisplay:10.37,2013-11-09 01:09:00,
2013-11-08 20:14:00,33.2,26.8,30.22,South,180,2.3,2.3,77,0.00,CLR,,0.01,0.0,WeatherDisplay:10.37,2013-11-09 01:14:00,
2013-11-08 20:19:00,33.2,26.8,30.21,South,180,1.2,1.2,77,0.00,CLR,,0.01,0.0,WeatherDisplay:10.37,2013-11-09 01:19:00,
2013-11-08 20:24:00,33.2,26.8,30.21,South,178,3.5,3.5,77,0.00,CLR,,0.01,0.0,WeatherDisplay:10.37,2013-11-09 01:24:00,
2013-11-08 20:29:00,33.1,26.7,30.21,South,178,3.5,3.5,77,0.00,CLR,,0.01,0.0,WeatherDisplay:10.37,2013-11-09 01:29:00,
2013-11-08 20:34:00,33.0,26.9,30.21,South,178,2.3,2.3,78,0.00,CLR,,0.01,0.0,WeatherDisplay:10.37,2013-11-09 01:34:00,
2013-11-08 20:39:00,33.0,26.9,30.21,South,178,2.3,2.3,78,0.00,CLR,,0.01,0.0,WeatherDisplay:10.37,2013-11-09 01:39:00,
2013-11-08 20:44:00,33.0,26.9,30.21,South,174,3.5,3.5,78,0.00,CLR,,0.01,0.0,WeatherDisplay:10.37,2013-11-09 01:44:00,
2013-11-08 20:49:00,32.8,26.7,30.21,South,174,1.2,1.2,78,0.00,CLR,,0.01,0.0,WeatherDisplay:10.37,2013-11-09 01:49:00,
2013-11-08 20:54:00,32.7,26.9,30.20,South,174,2.3,2.3,79,0.00,CLR,,0.01,0.0,WeatherDisplay:10.37,2013-11-09 01:54:00,
2013-11-08 20:59:00,32.7,26.9,30.20,South,174,2.0,2.0,79,0.00,CLR,,0.01,0.0,WeatherDisplay:10.37,2013-11-09 01:59:00,
2013-11-08 21:05:00,32.7,26.9,30.20,South,174,0.0,0.0,79,0.00,CLR,,0.01,0.0,WeatherDisplay:10.37,2013-11-09 02:05:00,
2013-11-08 21:10:00,32.7,26.9,30.21,South,174,3.0,3.0,79,0.00,CLR,,0.01,0.0,WeatherDisplay:10.37,2013-11-09 02:10:00,
2013-11-08 21:15:00,32.9,27.1,30.20,South,173,2.3,2.3,79,0.00,CLR,,0.01,0.0,WeatherDisplay:10.37,2013-11-09 02:15:00,
2013-11-08 21:20:00,32.9,27.1,30.21,South,173,2.3,2.3,79,0.00,CLR,,0.01,0.0,WeatherDisplay:10.37,2013-11-09 02:20:00,
2013-11-08 21:25:00,33.0,27.2,30.21,South,174,3.5,3.5,79,0.00,CLR,,0.01,0.0,WeatherDisplay:10.37,2013-11-09 02:25:00,
2013-11-08 21:30:00,33.3,27.5,30.21,South,182,4.0,4.0,79,0.00,CLR,,0.01,0.0,WeatherDisplay:10.37,2013-11-09 02:30:00,
2013-11-08 21:35:00,33.5,27.7,30.20,South,181,3.5,3.5,79,0.00,CLR,,0.01,0.0,WeatherDisplay:10.37,2013-11-09 02:35:00,
2013-11-08 21:40:00,33.8,28.0,30.20,South,181,4.6,4.6,79,0.00,CLR,,0.01,0.0,WeatherDisplay:10.37,2013-11-09 02:40:00,
2013-11-08 21:45:00,34.0,27.9,30.21,South,180,5.0,5.0,78,0.00,CLR,,0.01,0.0,WeatherDisplay:10.37,2013-11-09 02:45:00,
2013-11-08 21:50:00,34.2,28.1,30.21,South,182,3.5,3.5,78,0.00,CLR,,0.01,0.0,WeatherDisplay:10.37,2013-11-09 02:50:00,
2013-11-08 21:55:00,34.4,27.9,30.21,South,182,5.8,5.8,77,0.00,CLR,,0.01,0.0,WeatherDisplay:10.37,2013-11-09 02:55:00,
2013-11-08 22:00:00,34.6,28.1,30.21,South,179,4.0,4.0,77,0.00,CLR,,0.01,0.0,WeatherDisplay:10.37,2013-11-09 03:00:00,
2013-11-08 22:05:00,34.8,28.3,30.21,South,175,4.6,4.6,77,0.00,CLR,,0.01,0.0,WeatherDisplay:10.37,2013-11-09 03:05:00,
2013-11-08 22:10:00,34.9,28.4,30.21,South,178,3.5,3.5,77,0.00,CLR,,0.01,0.0,WeatherDisplay:10.37,2013-11-09 03:10:00,
2013-11-08 22:15:00,35.1,28.6,30.21,South,181,4.0,4.0,77,0.00,CLR,,0.01,0.0,WeatherDisplay:10.37,2013-11-09 03:15:00,
2013-11-08 22:20:00,35.3,28.8,30.21,South,181,5.8,5.8,77,0.00,BKN,,0.01,0.0,WeatherDisplay:10.37,2013-11-09 03:20:00,
2013-11-08 22:25:00,35.5,29.0,30.20,South,181,5.8,5.8,77,0.00,BKN,,0.01,0.0,WeatherDisplay:10.37,2013-11-09 03:25:00,
2013-11-08 22:30:00,35.7,28.9,30.20,South,181,4.6,4.6,76,0.00,BKN,,0.01,0.0,WeatherDisplay:10.37,2013-11-09 03:30:00,
2013-11-08 22:35:00,35.9,29.4,30.20,South,180,4.6,4.6,77,0.00,BKN,,0.01,0.0,WeatherDisplay:10.37,2013-11-09 03:35:00,
2013-11-08 22:40:00,35.9,29.4,30.20,South,182,3.5,3.5,77,0.00,BKN,,0.01,0.0,WeatherDisplay:10.37,2013-11-09 03:40:00,
2013-11-08 22:45:00,36.0,29.2,30.19,South,175,3.5,3.5,76,0.00,BKN,,0.01,0.0,WeatherDisplay:10.37,2013-11-09 03:45:00,
2013-11-08 22:50:00,36.1,29.3,30.19,SSW,193,5.8,5.8,76,0.00,BKN,,0.01,0.0,WeatherDisplay:10.37,2013-11-09 03:50:00,
2013-11-08 22:55:00,36.3,29.5,30.19,South,178,4.0,4.0,76,0.00,BKN,,0.01,0.0,WeatherDisplay:10.37,2013-11-09 03:55:00,
2013-11-08 23:00:00,36.4,29.6,30.19,South,171,4.6,4.6,76,0.00,BKN,,0.01,0.0,WeatherDisplay:10.37,2013-11-09 04:00:00,
2013-11-08 23:05:00,36.5,29.7,30.19,SSE,165,4.6,4.6,76,0.00,OVC,,0.01,0.0,WeatherDisplay:10.37,2013-11-09 04:05:00,
2013-11-08 23:10:00,36.6,29.7,30.19,South,170,3.5,3.5,76,0.00,OVC,,0.01,0.0,WeatherDisplay:10.37,2013-11-09 04:10:00,
2013-11-08 23:15:00,36.6,29.7,30.18,SSE,163,4.6,4.6,76,0.00,OVC,,0.01,0.0,WeatherDisplay:10.37,2013-11-09 04:15:00,
2013-11-08 23:20:00,36.5,30.0,30.18,SSE,163,3.5,3.5,77,0.00,OVC,,0.01,0.0,WeatherDisplay:10.37,2013-11-09 04:20:00,
2013-11-08 23:25:00,36.4,29.9,30.18,SSE,163,3.5,3.5,77,0.00,OVC,,0.01,0.0,WeatherDisplay:10.37,2013-11-09 04:25:00,
2013-11-08 23:30:00,36.3,29.8,30.18,SSE,162,1.2,0.0,77,0.00,OVC,,0.01,0.0,WeatherDisplay:10.37,2013-11-09 04:30:00,
2013-11-08 23:35:00,36.2,30.0,30.18,SSE,162,3.0,3.0,78,0.00,OVC,,0.01,0.0,WeatherDisplay:10.37,2013-11-09 04:35:00,
2013-11-08 23:40:00,36.1,29.6,30.18,SSE,162,3.5,3.5,77,0.00,OVC,,0.01,0.0,WeatherDisplay:10.37,2013-11-09 04:40:00,
2013-11-08 23:45:00,36.1,29.9,30.18,SSE,166,3.5,3.5,78,0.00,OVC,,0.01,0.0,WeatherDisplay:10.37,2013-11-09 04:45:00,
2013-11-08 23:50:00,36.0,30.1,30.18,SSE,164,3.5,3.5,79,0.00,OVC,,0.01,0.0,WeatherDisplay:10.37,2013-11-09 04:50:00,
2013-11-08 23:55:00,36.0,30.1,30.18,SSE,163,3.5,3.5,79,0.00,OVC,,0.01,0.0,WeatherDisplay:10.37,2013-11-09 04:55:00,